Location: Unspecified
(33.8830°S, 0.0000°E)
Time: 09:50:09
(UTC+00:00)

DMSP-16 DEB - Visible Passes

Search period start: 04 April 2026 00:00
Search period end: 14 April 2026 00:00
Orbit: 775 x 780 km, 98.8° (Epoch: 29 March)

Date Brightness Start Highest point End Pass type
(mag) Time Alt. Az. Time Alt. Az. Time Alt. Az.
4 Apr ? 18:16:03 10° SSE 18:20:55 39° E 18:25:42 10° NNE visible
4 Apr ? 19:55:57 10° SSW 19:59:47 21° WSW 20:03:34 10° WNW visible
5 Apr ? 05:28:16 10° NE 05:33:03 39° ESE 05:37:52 10° S visible
5 Apr ? 19:21:53 10° S 19:26:48 44° WSW 19:31:40 10° NW visible
6 Apr ? 04:56:32 10° ENE 05:00:06 19° ESE 05:03:41 10° SSE visible
6 Apr ? 18:48:27 10° SSE 18:53:40 85° ENE 18:58:49 10° NNW visible
7 Apr ? 18:15:32 10° SSE 18:20:22 38° E 18:25:08 10° NNE visible
7 Apr ? 19:55:23 10° SSW 19:59:15 21° WSW 20:03:05 10° WNW visible
8 Apr ? 05:27:45 10° NE 05:32:30 39° ESE 05:37:19 10° S visible
8 Apr ? 19:21:19 10° S 19:26:15 45° WSW 19:31:08 10° NW visible
9 Apr ? 04:56:03 10° ENE 04:59:33 19° ESE 05:03:05 10° SSE visible
9 Apr ? 18:47:52 10° SSE 18:53:06 84° ENE 18:58:15 10° NNW visible
9 Apr ? 20:31:10 10° WSW 20:31:30 10° WSW 20:31:50 10° WSW visible
10 Apr ? 18:14:58 10° SSE 18:19:47 37° E 18:24:31 10° NNE visible
10 Apr ? 19:54:46 10° SSW 19:58:40 22° WSW 20:02:32 10° WNW visible
11 Apr ? 05:27:11 10° NE 05:31:56 38° ESE 05:36:42 10° S visible
11 Apr ? 19:20:43 10° S 19:25:40 46° WSW 19:30:33 10° NW visible
12 Apr ? 04:55:30 10° ENE 04:58:57 18° ESE 05:02:26 10° SSE visible
12 Apr ? 18:47:15 10° SSE 18:52:29 82° ENE 18:57:37 10° N visible
12 Apr ? 20:30:07 10° SW 20:30:53 10° WSW 20:31:41 10° WSW visible
13 Apr ? 18:14:21 10° SSE 18:19:08 37° E 18:23:51 10° NNE visible
13 Apr ? 19:54:06 10° SSW 19:58:02 22° WSW 20:01:58 10° WNW visible
